TimeCEST,TemperatureF,Dew PointF,Humidity,Sea Level PressureIn,VisibilityMPH,Wind Direction,Wind SpeedMPH,Gust SpeedMPH,PrecipitationIn,Events,Conditions,WindDirDegrees,DateUTC
12:00 AM,53.6,48.2,82,30.12,5.6,Calm,Calm,-,N/A,,Unknown,0,2013-09-23 22:00:00
12:30 AM,51.8,48.2,88,30.12,4.3,Variable,2.3,-,N/A,,Unknown,0,2013-09-23 22:30:00
1:00 AM,50.0,48.2,94,30.09,-9999.0,Variable,2.3,-,N/A,,Mist,0,2013-09-23 23:00:00
1:30 AM,50.0,48.2,94,30.09,-9999.0,Calm,Calm,-,N/A,,Mist,0,2013-09-23 23:30:00
2:00 AM,51,50,96,30.11,0,Calm,Calm,,,Fog,Partial Fog,,2013-09-24 00:00:00
2:00 AM,51.8,50.0,94,30.09,0.1,Calm,Calm,-,N/A,Fog,Fog,0,2013-09-24 00:00:00
2:30 AM,48.2,46.4,93,30.09,0.9,Calm,Calm,-,N/A,,Mist,0,2013-09-24 00:30:00
3:00 AM,46.4,46.4,100,30.09,-9999.0,SSW,2.3,-,N/A,,Mist,200,2013-09-24 01:00:00
3:30 AM,48.2,46.4,93,30.06,-9999.0,Calm,Calm,-,N/A,,Mist,0,2013-09-24 01:30:00
4:00 AM,46.4,44.6,93,30.06,1.4,SSE,2.3,-,N/A,,Mist,150,2013-09-24 02:00:00
4:30 AM,48.2,48.2,100,30.04,0.2,ESE,2.3,-,N/A,Fog,Fog,110,2013-09-24 02:30:00
5:00 AM,46.4,44.6,93,30.04,0.4,ESE,2.3,-,N/A,Fog,Fog,110,2013-09-24 03:00:00
5:30 AM,44.6,44.6,100,30.04,0.2,SE,1.2,-,N/A,Fog,Fog,140,2013-09-24 03:30:00
6:00 AM,44.6,42.8,93,30.04,0.3,Variable,2.3,-,N/A,Fog,Fog,0,2013-09-24 04:00:00
6:30 AM,42.8,42.8,100,30.04,0.3,South,4.6,-,N/A,Fog,Fog,180,2013-09-24 04:30:00
7:00 AM,46.4,46.4,100,30.04,0.1,SSE,3.5,-,N/A,Fog,Fog,160,2013-09-24 05:00:00
7:30 AM,46.4,44.6,93,30.04,0.2,South,4.6,-,N/A,Fog,Fog,180,2013-09-24 05:30:00
8:00 AM,46,46,98,30.05,0,South,3.5,,,Fog,Partial Fog,170,2013-09-24 06:00:00
8:00 AM,46.4,46.4,100,30.04,0.1,South,3.5,-,N/A,Fog,Fog,170,2013-09-24 06:00:00
8:30 AM,48.2,48.2,100,30.04,0.9,South,3.5,-,N/A,,Mist,170,2013-09-24 06:30:00
9:00 AM,50.0,50.0,100,30.04,1.1,South,3.5,-,N/A,Fog,Patches of Fog,170,2013-09-24 07:00:00
9:30 AM,51.8,51.8,100,30.01,4.3,Variable,2.3,-,N/A,,Unknown,0,2013-09-24 07:30:00
10:00 AM,55.4,53.6,94,30.01,6.2,ESE,4.6,-,N/A,,Unknown,120,2013-09-24 08:00:00
10:30 AM,57.2,55.4,94,30.01,6.2,Variable,2.3,-,N/A,,Unknown,0,2013-09-24 08:30:00
11:00 AM,60.8,55.4,82,30.01,6.2,East,3.5,-,N/A,,Unknown,90,2013-09-24 09:00:00
11:30 AM,62.6,55.4,77,30.01,6.2,Variable,3.5,-,N/A,,Unknown,0,2013-09-24 09:30:00
12:00 PM,66.2,57.2,73,30.01,6.2,Variable,3.5,-,N/A,,Unknown,0,2013-09-24 10:00:00
12:30 PM,66.2,57.2,73,29.98,6.2,ENE,4.6,-,N/A,,Unknown,60,2013-09-24 10:30:00
1:00 PM,68.0,57.2,68,29.98,6.2,Variable,3.5,-,N/A,,Unknown,0,2013-09-24 11:00:00
1:30 PM,69.8,59.0,68,29.98,6.2,ENE,3.5,-,N/A,,Unknown,60,2013-09-24 11:30:00
2:00 PM,72,60,56,29.98,12,ENE,4.6,,,,Partly Cloudy,70,2013-09-24 12:00:00
2:00 PM,71.6,59.0,64,29.98,6.2,ENE,4.6,-,N/A,,Unknown,70,2013-09-24 12:00:00
2:30 PM,71.6,59.0,64,29.98,6.2,NE,3.5,-,N/A,,Unknown,50,2013-09-24 12:30:00
3:00 PM,73.4,59.0,61,29.95,6.2,Variable,5.8,-,N/A,,Unknown,0,2013-09-24 13:00:00
3:30 PM,73.4,59.0,61,29.95,6.2,East,3.5,-,N/A,,Partly Cloudy,100,2013-09-24 13:30:00
4:00 PM,75.2,59.0,57,29.95,6.2,Variable,3.5,-,N/A,,Unknown,0,2013-09-24 14:00:00
4:30 PM,75.2,59.0,57,29.95,6.2,Variable,3.5,-,N/A,,Unknown,0,2013-09-24 14:30:00
5:00 PM,75.2,59.0,57,29.92,6.2,Variable,2.3,-,N/A,,Unknown,0,2013-09-24 15:00:00
5:30 PM,75.2,59.0,57,29.92,6.2,WNW,3.5,-,N/A,,Unknown,290,2013-09-24 15:30:00
6:00 PM,75.2,59.0,57,29.92,6.2,NNW,3.5,-,N/A,,Unknown,330,2013-09-24 16:00:00
6:30 PM,73.4,59.0,61,29.92,6.2,NNW,3.5,-,N/A,,Unknown,330,2013-09-24 16:30:00
7:00 PM,73.4,59.0,61,29.92,6.2,North,3.5,-,N/A,,Unknown,360,2013-09-24 17:00:00
7:30 PM,71.6,59.0,64,29.92,6.2,North,3.5,-,N/A,,Unknown,350,2013-09-24 17:30:00
8:00 PM,63,58,78,29.92,12,WNW,3.5,,,,Clear,300,2013-09-24 18:00:00
8:00 PM,62.6,57.2,82,29.92,6.2,WNW,3.5,-,N/A,,Unknown,300,2013-09-24 18:00:00
8:30 PM,60.8,57.2,88,29.92,6.2,WNW,4.6,-,N/A,,Unknown,290,2013-09-24 18:30:00
9:00 PM,60.8,55.4,82,29.92,6.2,WNW,5.8,-,N/A,,Unknown,300,2013-09-24 19:00:00
9:30 PM,60.8,55.4,82,29.92,6.2,NW,3.5,-,N/A,,Unknown,310,2013-09-24 19:30:00
10:00 PM,59.0,53.6,82,29.92,6.2,WNW,3.5,-,N/A,,Unknown,290,2013-09-24 20:00:00
10:30 PM,57.2,53.6,88,29.92,6.2,WNW,4.6,-,N/A,,Unknown,300,2013-09-24 20:30:00
11:00 PM,57.2,53.6,88,29.92,6.2,Calm,Calm,-,N/A,,Unknown,0,2013-09-24 21:00:00
11:30 PM,57.2,53.6,88,29.92,6.2,Calm,Calm,-,N/A,,Unknown,0,2013-09-24 21:30:00